Regional Weather Roundup
Issued by NWS Wilmington, NC

Home | Current Version | Previous Version | Text Only | Print | Product List | Glossary On
Versions: 1 2 3 4 5 6 7 8 9 10 11 12 13 14 15 16 17 18 19 20 21 22 23 24 25 26 27 28 29 30 31 32 33 34 35 36 37 38 39 40 41 42 43 44 45 46 47 48 49 50
000
ASUS42 KILM 160510
RWRILM
RWRILM
REGIONAL HOURLY WEATHER ROUNDUP
NATIONAL WEATHER SERVICE WILMINGTON NC
100 AM EDT TUE SEP 16 2014

NOTE: "FAIR" INDICATES FEW OR NO CLOUDS BELOW 12,000 FEET WITH NO
SIGNIFICANT WEATHER AND/OR OBSTRUCTIONS TO VISIBILITY.

...............WFO WILMINGTON COUNTY WARNING AREA...............

......COASTAL NC AND SC COUNTIES......

CITY           SKY/WX    TMP DP  RH WIND       PRES   REMARKS
WILMINGTON     MOCLDY    72  69  90 CALM      30.10F
SOUTHPORT      PTCLDY    69  67  94 N3        30.10F
N MYRTLE BEACH CLOUDY    72  69  90 NE3       30.09F
MYRTLE BEACH   MOCLDY    72  68  88 N6        30.10F

......INLAND NC AND SC COUNTIES.......

CITY           SKY/WX    TMP DP  RH WIND       PRES   REMARKS
LUMBERTON      CLOUDY    71  69  93 S3        30.09F
ELIZABETHTOWN  MOCLDY    71  70  96 CALM      30.10F
WHITEVILLE     CLOUDY    71  69  95 CALM      30.10F FOG
FLORENCE       CLOUDY    73  70  90 CALM      30.10F
DARLINGTON     CLOUDY    72  68  88 CALM      30.11F

....................REST OF NORTH CAROLINA......................

.........EASTERN NC.........

CITY           SKY/WX    TMP DP  RH WIND       PRES   REMARKS
CAPE HATTERAS  CLOUDY    68  64  87 NE3       30.10F
JACKSONVILLE   MOCLDY    70  66  88 CALM      30.10F
MOREHEAD CITY  CLOUDY    73  68  84 CALM      30.10F
KENANSVILLE    MOCLDY    68  66  94 CALM      30.11F
NEW BERN       MOCLDY    72  68  87 CALM      30.11F
ELIZABETH CITY CLOUDY    70  63  78 S5        30.08F

.........CENTRAL NC.........

CITY           SKY/WX    TMP DP  RH WIND       PRES   REMARKS
RALEIGH DURHAM LGT RAIN  69  65  86 SW5       30.09F
ROCKY MOUNT    CLOUDY    67  65  93 CALM      30.09F
ROANOKE RAPIDS NOT AVBL
FAYETTEVILLE   MOCLDY    71  69  93 S3        30.09F
HOFFMAN        NOT AVBL

.........WESTERN NC.........

CITY           SKY/WX    TMP DP  RH WIND       PRES   REMARKS
CHARLOTTE      CLOUDY    70  68  93 CALM      30.13S FOG
GREENSBORO     CLOUDY    68  65  90 W5        30.11S
HICKORY        NOT AVBL
BOONE          NOT AVBL
ASHEVILLE      NOT AVBL

.....................REST OF SOUTH CAROLINA.....................

.........EASTERN SC.........

CITY           SKY/WX    TMP DP  RH WIND       PRES   REMARKS
CHARLESTON     CLOUDY    76  74  93 CALM      30.09F FOG
BEAUFORT MCAS  CLOUDY    76  73  91 CALM      30.08F
HILTON HEAD    NOT AVBL

.........CENTRAL SC.........

CITY           SKY/WX    TMP DP  RH WIND       PRES   REMARKS
COLUMBIA       CLOUDY    74  70  87 W3        30.10F
ORANGEBURG     CLOUDY    74  71  91 W5        30.10F
SUMTER SHAW    MOCLDY    73  70  88 W2        30.08F

.........WESTERN SC.........

CITY           SKY/WX    TMP DP  RH WIND       PRES   REMARKS
GREENVILLE     NOT AVBL
ROCK HILL      CLOUDY    71  70  96 SW5       30.13F FOG
ANDERSON       CLOUDY    71  69  93 CALM      30.14F
CLEMSON        NOT AVBL
GREENWOOD      CLOUDY    72  70  93 CALM      30.15F FOG


...................COASTAL AND OFFSHORE REPORTS..................

................LOCAL PIERS AND NC RESERVE................


STATION/POSITION TIME  SKY/WX   TEMP    WIND        PRES    VSBY
                                AIR SEA DIR/SP/G
                 (UTC)          (F)     (DEG/KT/KT) (MB)    (MI)
JOHNY MRCER PIER 0500            74 82  340/  3/  5 1018.9
NC RESRV MASNBRO 0400            72      10/  1     1019.0F
OCEAN CREST PIER 0500            71 81  360/  6/  8 1018.6F
SPRINGMAID  PIER 0500            73 81   10/  5/  6 1019.2


................COASTAL AND OFFSHORE BUOYS................


STATION/POSITION TIME  SKY/WX   TEMP    WIND        PRES    VSBY
                                AIR SEA DIR/SP/G
                 (UTC)          (F)     (DEG/KT/KT) (MB)    (MI)
DIMNDSHOAL 41025 0500            73     340/  6/  8 1019.2F
WVE H/P(F/S)=  3/ 8 WND WVE H/P(F/S)=  2/ 3 SWL H/P/D(F/S/D)=  3/ 40/ 8

CAPE LOOKOUT     0400            74      50/  6/  7 1019.9F
ONSLOW BAY 41036 0500            77 82   30/  2/  6 1019.7F
WVE H/P(F/S)=  2/ 5 SWL H/P/D(F/S/D)=  2/ 70/ 5

5 WRITEBCH 41038 0400            73 81   30/  6/  8   N/A
MASONBORO  41110 0500               81                N/A
WVE H/P(F/S)=  2/ 6 WND WVE H/P(F/S)=  2/ 6

WILM HARBR 41108 0500               82                N/A
WVE H/P(F/S)=  2/13 WND WVE H/P(F/S)=  2/ 5

27WRITEBCH 41037 0400            74 82   70/  4/  4 1019.7F
FRYING PAN 41013 NOT AVBL
SUNST NRSH 41024 NOT AVBL
CAPRS NRSH 41029 0400            80     230/  2/  4   N/A
EDISTO     41004 0500            80 83  210/  2/  4 1018.5F
WVE H/P(F/S)=  2/ 8 WND WVE H/P(F/S)=  2/ 4 SWL H/P/D(F/S/D)=  2/ 8



..........OFFSHORE BUOYS BEYOND 100 NM OFFSHORE...........
.....IN A TRIANGLE---HAT TO BERMUDA TO BAHAMAS TO HAT.....


STATION/POSITION TIME  SKY/WX   TEMP    WIND        PRES    VSBY
                                AIR SEA DIR/SP/G
                 (UTC)          (F)     (DEG/KT/KT) (MB)    (MI)
150E HAT   41001 NOT AVBL
W BERMUDA  41048 0441            81 83  200/ 10/ 14 1017.8F
WVE H/P(F/S)=  3/ 8 WND WVE H/P(F/S)=  2/ 3

ATLANTIC S 41049 0426            83 85  350/ 12/ 14 1015.6F
WVE H/P(F/S)= 10/14 WND WVE H/P(F/S)=  3/ 5 SWL H/P/D(F/S/D)= 10/ 90/14

E BAHAMAS  41046 0351            83 84   70/  8/ 10 1017.4F
WVE H/P(F/S)=  6/11 WND WVE H/P(F/S)=  2/ 4 SWL H/P/D(F/S/D)=  5/ 90/11

NE BAHAMAS 41047 0352            82 83  110/  6/  8 1019.1F
WVE H/P(F/S)=  3/ 7 WND WVE H/P(F/S)=  2/ 4 SWL H/P/D(F/S/D)=  3/100/ 7

120E CANVRL41010 0500            83 85  220/  6/  8 1020.0F
WVE H/P(F/S)=  2/ 7 SWL H/P/D(F/S/D)=  2/ 80/ 7


END



USA.gov is the U.S. government's official web portal to all federal, state and local government web resources and services.